STARLINK-11198 [DTC] (60114 NORAD) Tracking and Keplerian Element Data

This shows tracking and keplerian element data for the satellite.

Feedback or suggestion? Click here.




ElementValue
Catalog60114
NameSTARLINK-11198 [DTC]
Epoch Orbit1744
Epoch Day286.85767889
Epoch Year2024
RAAN229.6041
Inclination53.1566
Eccentricity0.0001133
Argument of Perigee79.9352
Mean Anonmoly280.1794
Mean Motion15.69770055
Decay Rate0.00042925
L11 60114U 24118B 24286.85767889 .00042925 00000+0 35644-3 0 9994
L22 60114 53.1566 229.6041 0001133 79.9352 280.1794 15.69770055 17449



Live tracking and technical data element details for STARLINK-11198 [DTC] (NORAD 60114). STARLINK-11198 [DTC] can be tracked NOW for your location showing map with azimuth and elevation plus other details from your city location.







IsCatalogInMostPopularTable: catalog: 60114, numindb: 8
Update: records affected: 1



GetName: 60114 STARLINK-11198 [DTC]

Hit Count: updated at: Thu, 23 Jan 2025 14:43:01 GMT